Regional Weather Roundup
Issued by NWS

Home | Current Version | Previous Version | Graphics & Text | Print | Product List | Glossary Off
Versions: 1 2 3 4 5 6 7 8 9 10 11 12 13 14 15 16 17 18 19 20 21 22 23 24 25 26 27 28 29 30 31 32 33 34 35 36 37 38 39 40 41 42 43 44 45 46 47 48 49 50

000
ASUS43 KMKX 191200
RWRWI

WISCONSIN REGIONAL WEATHER ROUNDUP
NATIONAL WEATHER SERVICE MILWAUKEE/SULLIVAN WI
600 AM CST THU JAN 19 2017

NOTE: "FAIR" INDICATES FEW OR NO CLOUDS BELOW 12,000 FEET WITH NO
SIGNIFICANT WEATHER AND/OR OBSTRUCTIONS TO VISIBILITY.

WIZ001-002-006>008-014>016-023>028-191300-
NORTHWEST WISCONSIN

CITY           SKY/WX    TMP DP  RH WIND       PRES   REMARKS
SUPERIOR ARPT  CLOUDY    35  33  93 SW10G16   29.80R WCI  27
ASHLAND        CLOUDY    32  31  96 S5        29.83S FOG     WCI  27
6HR MIN TEMP:  22; 6HR MAX TEMP:  32;

HAYWARD        CLOUDY    33  30  88 S9        29.84R FOG     WCI  25
6HR MIN TEMP:  28; 6HR MAX TEMP:  33;

SIREN          CLOUDY    31  30  97 SE6       29.83R FOG     WCI  25
CUMBERLAND     CLOUDY    30  28  93 S7        29.84R FOG     WCI  23
RICE LAKE      FOG       30  30  99 SE5       29.86S VSB 1/4 WCI  25
CHETEK         FOG       30  30 100 SE8       29.86S VSB 1/2 WCI  22
LADYSMITH      FOG       32  32  99 S5        29.88S VSB 1/2 WCI  28
EAU CLAIRE     CLOUDY    29  28  96 S5        29.87R FOG     WCI  24
MENOMONIE      FOG       25  25  99 MISG      29.87R VSB 1/4
NEW RICHMOND   CLEAR     31  31  99 SE5       29.83R WCI  27
OSCEOLA        CLEAR     33  33 100 S9        29.85R WCI  25
$$

WIZ003>005-009-010-017-018-191300-
NORTH CENTRAL WISCONSIN

CITY           SKY/WX    TMP DP  RH WIND       PRES   REMARKS
MANITOWISH WTR FOG       31  31 100 S9        29.85R VSB 1/2 WCI  23
ARBOR VITAE    FOG       32  31  96 SW6       29.85S VSB 3/4 WCI  26
WOODRUFF       FOG       32  31  96 SW6       29.85S VSB 3/4 WCI  26
RHINELANDER    FOG       31  31 100 SW7       29.88R VSB 1/2 WCI  24
6HR MIN TEMP:  29; 6HR MAX TEMP:  31;

EAGLE RIVER    FOG       31  31 100 SW3       29.86R VSB 1/2
LAND O LAKES   FOG       32  32 100 SW7       29.87R VSB 3/4 WCI  26
PHILLIPS       CLOUDY    31  31 100 S5        29.86R FOG     WCI  26
6HR MIN TEMP:  27; 6HR MAX TEMP:  31;

TOMAHAWK       CLOUDY    31  30  96 CALM      29.88S FOG
MEDFORD        FOG       31  31 100 S7        29.88S VSB 1/4 WCI  24
MERRILL        FOG       31  31 100 S3          N/A  VSB 3/4
6HR MIN TEMP:  28; 6HR MAX TEMP:  31;

$$

WIZ029-030-035-036-043>047-191300-
CENTRAL WISCONSIN

CITY           SKY/WX    TMP DP  RH WIND       PRES   REMARKS
WAUSAU         FOG       31  31 100 CALM      29.88F VSB 1/4
6HR MIN TEMP:  28; 6HR MAX TEMP:  31;

MOSINEE        NOT AVBL
MARSHFIELD     FOG       32  31  96 S7        29.89S VSB 1/4 WCI  26
6HR MIN TEMP:  27; 6HR MAX TEMP:  32;

STEVENS POINT  FOG       31  31 100 SW5       29.93S VSB 1/2 WCI  26
WAUPACA        CLOUDY    35  33  93 CALM      29.95S FOG
WAUTOMA        CLOUDY    34  33  96 S8        29.96R FOG     WCI  27
6HR MIN TEMP:  31; 6HR MAX TEMP:  34;

WISC RAPIDS    FOG       33  33 100 S6        29.93S VSB 1/2 WCI  28
6HR MIN TEMP:  29; 6HR MAX TEMP:  33;

CAMP DOUGLAS   NOT AVBL
$$

WIZ011>013-019>022-031-037>040-048>050-191300-
NORTHEAST WISCONSIN

CITY           SKY/WX    TMP DP  RH WIND       PRES   REMARKS
ANTIGO         FOG       29  29 100 SW6       29.90S VSB 1/2 WCI  23
SHAWANO        CLOUDY    33  32  94 SW3       29.95R FOG
OCONTO         CLOUDY    32  31  96 SW6       29.95R WCI  26
STURGEON BAY   CLOUDY    32  31  96 W8        29.96R FOG     WCI  25
6HR MIN TEMP:  30; 6HR MAX TEMP:  32;

GREEN BAY      CLOUDY    34  34 100 SW8       29.95F FOG     WCI  27
6HR MIN TEMP:  33; 6HR MAX TEMP:  34;

MANITOWOC      NOT AVBL
APPLETON       FOG       32  32 100 SW12      29.94R VSB 1/2 WCI  23
CLINTONVILLE   CLOUDY    32  32 100 CALM      29.93F FOG
OSHKOSH        CLOUDY    33  32  96 S6        29.95S FOG     WCI  28
6HR MIN TEMP:  32; 6HR MAX TEMP:  33;

$$

WIZ032>034-041-042-053>061-191300-
SOUTHWEST WISCONSIN

CITY           SKY/WX    TMP DP  RH WIND       PRES   REMARKS
LA CROSSE      CLOUDY    36  33  89 SE8       29.92S WCI  30
6HR MIN TEMP:  35; 6HR MAX TEMP:  37;

SPARTA         FOG       27  27 100 CALM      29.93S VSB 1/2
VIROQUA        CLEAR     32  32 100 SE5       29.90F WCI  27
6HR MIN TEMP:  32; 6HR MAX TEMP:  34;

BOSCOBEL       CLOUDY    33  31  92 SW3       29.96S FOG
6HR MIN TEMP:  30; 6HR MAX TEMP:  37;

PRAIRIE DU CHI CLOUDY    33  32  95 CALM      29.95S FOG
PLATTEVILLE    CLOUDY    32  32 100 S5        29.95F VSB 1/4 WCI  27
$$

WIZ056-057-062-063-064-067-068-191300-
SOUTH CENTRAL WISCONSIN

CITY           SKY/WX    TMP DP  RH WIND       PRES   REMARKS
REEDSBURG      CLOUDY    32  32 100 S5        29.94F FOG     WCI  28
BARABOO/DELLS  CLEAR     32  31  98 CALM      29.94S FOG
LONE ROCK      CLOUDY    34  32  93 S5        29.95F FOG     WCI  30
MINERAL POINT  FOG       34  34 100 S3        29.93F VSB 1/4
MADISON        CLOUDY    33  33 100 S3        29.96F FOG
6HR MIN TEMP:  33; 6HR MAX TEMP:  33;

MIDDLETON      CLOUDY    34  34 100 CALM      29.95F
WATERTOWN      CLOUDY    33  33 100 SW5       29.96F FOG     WCI  28
MONROE         FOG       32  32 100 SW7       29.95S VSB 1/4 WCI  26
JANESVILLE     CLOUDY    32  32 100 CALM      29.97S FOG
$$

WIZ051-052-058>065-066-070>072-191300-
SOUTHEAST WISCONSIN

CITY           SKY/WX    TMP DP  RH WIND       PRES   REMARKS
MILWAUKEE      FOG       34  32  92 SW7       29.98S VSB 1   WCI  28
6HR MIN TEMP:  34; 6HR MAX TEMP:  35; 6HR PCP: TRACE;

WAUKESHA       NOT AVBL
MILWAUKEE/TIMM PTCLDY    32  30  93 SW6       29.98S FOG     WCI  26
RACINE         CLOUDY    33  32  96 SW6       30.01S FOG     WCI  28
6HR MIN TEMP:  33; 6HR MAX TEMP:  34;

KENOSHA        FOG       33  33 100 SW3       29.99S VSB 1
6HR MIN TEMP:  33; 6HR MAX TEMP:  34;

FOND DU LAC    CLOUDY    33  31  92 SW8       29.96S FOG     WCI  26
6HR MIN TEMP:  33; 6HR MAX TEMP:  34;

SHEBOYGAN      CLOUDY    33  31  92 SW5       29.97R FOG     WCI  29
6HR MIN TEMP:  32; 6HR MAX TEMP:  34;

WEST BEND      MOCLDY    32  32 100 W6        29.97S FOG     WCI  26
JUNEAU         FOG       32  32  99 S7        29.97F VSB 1   WCI  26
$$

LSZ147-162-191300-
LAKE SUPERIOR

STATION/POSITION TIME  TEMP    WIND        PRES    WAVE
                       AIR SEA DIR/SP/G            HT/PER
                 (UTC) (F)     (DEG/KT/KT) (MB)    (FT/S)
DEVILS ISLAND    1100   33     160/  7/  9 1010.5R
PORT WING        1140   24     120/  2/  3 1009.8R
SAXON HARBOR     1130   28     200/  3/  4 1010.2R
$$

LMZ867-665-643>646-191300-
LAKE MICHIGAN

STATION/POSITION TIME  TEMP    WIND        PRES    WAVE
                       AIR SEA DIR/SP/G            HT/PER
                 (UTC) (F)     (DEG/KT/KT) (MB)    (FT/S)
NORTHPORT PIER   1140   31     250/  5/ 16 1013.9R
SISTER BAY       1120   31     270/ 15/ 18   N/A
KEWAUNEE LAKESHO 1130   33     240/  6/  9 1014.1R
SHEBOYGAN LAKESH 1100   34     240/  5/  8 1015.1F
PORT WASHINGTON  1140   33     260/  1/  3 1015.9S
MILWAUKEE LAKESH 1130   34     210/  6/  7   N/A
KENOSHA   LAKESH 1100   34     250/  3/  4 1016.3
$$

TC  - TEMPERATURE IN CELSIUS
VSB - VISIBILITY IN STATUTE MILES
WCI - WIND CHILL INDEX
HX  - HEAT INDEX





USA.gov is the U.S. government's official web portal to all federal, state and local government web resources and services.